This is the latest recevied weather packets stored in our database for station/object IW2LSY-11. If no packets are shown the sender has not sent any weather packets the latest 10 day(s).
| Time | Temp. | Humidity | Pressure | Rain* | Wind** | Luminosity | Snow |
|---|---|---|---|---|---|---|---|
| 1777640408 | 21.67° C | 32% | 1024.5 hPa | - | - | 492 W/m² | - |
| 1777639808 | 22.22° C | 31% | 1024.6 hPa | - | - | 488 W/m² | - |
| 1777639208 | 21.67° C | 31% | 1024.8 hPa | - | - | 488 W/m² | - |
| 1777638608 | 21.67° C | 32% | 1024.9 hPa | - | - | 487 W/m² | - |
| 1777638008 | 21.67° C | 32% | 1025 hPa | - | - | 482 W/m² | - |
| 1777637408 | 21.67° C | 33% | 1025 hPa | - | - | 478 W/m² | - |
| 1777636808 | 21.67° C | 33% | 1025.2 hPa | - | - | 476 W/m² | - |
| 1777636208 | 21.11° C | 34% | 1025.3 hPa | - | - | 471 W/m² | - |
| 1777635609 | 21.11° C | 34% | 1025.4 hPa | - | - | 465 W/m² | - |
| 1777635009 | 20.56° C | 34% | 1025.6 hPa | - | - | 460 W/m² | - |
| 1777634410 | 21.11° C | 35% | 1025.8 hPa | - | - | 458 W/m² | - |
| 1777633810 | 20.56° C | 34% | 1025.9 hPa | - | - | 452 W/m² | - |
| 1777633209 | 20.56° C | 34% | 1026 hPa | - | - | 445 W/m² | - |
| 1777632609 | 20° C | 34% | 1026.2 hPa | - | - | 439 W/m² | - |
| 1777632009 | 19.44° C | 33% | 1026.4 hPa | - | - | 435 W/m² | - |
| 1777631409 | 20° C | 35% | 1026.5 hPa | - | - | 434 W/m² | - |
| 1777630810 | 18.89° C | 34% | 1026.6 hPa | - | - | 429 W/m² | - |
| 1777630210 | 18.89° C | 34% | 1026.7 hPa | - | - | 423 W/m² | - |
| 1777629611 | 18.89° C | 36% | 1026.9 hPa | - | - | 418 W/m² | - |
| 1777629011 | 18.89° C | 34% | 1026.9 hPa | - | - | 410 W/m² | - |
| 1777628411 | 19.44° C | 34% | 1027 hPa | - | - | 403 W/m² | - |
| 1777627811 | 18.89° C | 34% | 1027.1 hPa | - | - | 398 W/m² | - |
| 1777627211 | 18.33° C | 33% | 1027.1 hPa | - | - | 392 W/m² | - |
| 1777626611 | 17.78° C | 34% | 1027.2 hPa | - | - | 385 W/m² | - |
| 1777626011 | 16.67° C | 35% | 1027.3 hPa | - | - | 380 W/m² | - |
* Rain since midnight (hover to see other rain measurements)
** Current wind speed in m/s (hover to see current wind gust speed)